User: anonymous   Login
Location: Academy at Carrie F Thomas
(32.8490°N, 97.2053°W)
Time: 14:45:58
(UTC+00:00)
Language:

Cosmos 1602 - Orbit

View from above orbital plane
View from above orbital plane
View from above satellite
View from above satellite

Ground track
Ground track

The orbit data is extracted from the following two-line orbital elements,

1 15331U 84105A   22137.61808550  .00004789  00000-0  24951-3 0  9991
2 15331  82.5387   3.7054 0013487 193.9789 166.1072 15.15687318 53204
Epoch (UTC): 17 May 2022 14:50:02
Eccentricity: 0.0013487
inclination: 82.5387°
perigee height: 509 km
apogee height: 528 km
right ascension of ascending node: 3.7054°
argument of perigee: 193.9789°
revolutions per day: 15.15687318
mean anomaly at epoch: 166.1072°
orbit number at epoch: 5320

The dashed part of the orbit path shows where the satellite is in the earth's shadow,  

DLR